Tracking 27126 objects as of 30-Mar-2023
HD Live streaming from Space Station
objects crossing your sky now

STARLINK-3253

Track STARLINK-3253 now!
10-day predictions
STARLINK-3253 is classified as:


NORAD ID: 51136
Int'l Code: 2022-005AJ
Perigee: 546.3 km
Apogee: 547.5 km
Inclination: 53.2 °
Period: 95.4 minutes
Semi major axis: 6917 km
RCS: Unknown
Launch date: January 19, 2022
Source: United States (US)
Launch site: AIR FORCE EASTERN TEST RANGE (AFETR)
Your satellite tracking list
Your tracking list is empty




NASA's NSSDC Master Catalog

Two Line Element Set (TLE):
1 51136U 22005AJ  23088.72479673 -.00002799  00000-0 -15790-3 0  9995
2 51136  53.2152  89.3130 0000875  84.0977 276.0115 15.08833803 66299
Source of the keplerian elements: AFSPC